Date/Time (UTC),PHv2,PWv2,PTv2,PSv3,PHv3,PWv3,PTv3,MESH,VIL,CompRef,Ref -20C,Flash Rate,Max Flash Density,LJA sigma-level,Max 0-2km AzShear,LLAZ 98th%,MLAZ 98th%,MUCAPE,MLCAPE,CAPE -10C to -30C,MLCIN,SRH 0-1km AGL,EBShear,MeanWind 0-1km AGL,Norm. Sat. Growth Rate,ICP,PWAT,WBZ,AvgBeamHgt,STP(eff),DCAPE,ESRH,LLLR,MLLR
2023/06/15 21:26,1,1,0,8,5,5,1,0.07,8,51.5,40,1,0.12,0,6,3,2,1694,1472,384,0,70,45,29,0,3,1.2,9.4,4.61,0,590,0,8.7,7.3
2023/06/15 21:28,5,21,1,32,32,11,2,0.53,13,52.0,50,4,0.26,0,7,5,8,1613,1429,380,0,73,46,29,0,1,1.2,9.4,4.04,0,563,0,8.7,7.3
2023/06/15 21:30,11,54,2,35,35,21,4,0.64,20,54.0,54,17,0.5,0,7,6,7,1556,1388,374,0,70,45,29,0,2,1.2,9.4,3.96,0,572,0,8.7,7.3
2023/06/15 21:32,15,63,2,50,50,26,5,0.75,29,59.0,55,17,0.5,0,6,6,6,1524,1344,371,0,70,46,29,0,2,1.2,9.4,3.86,0,568,0,8.6,7.3
2023/06/15 21:34,32,76,2,51,51,31,5,0.82,30,60.0,56,27,0.5,0,6,6,5,1490,1289,368,0,66,46,29,0,36,1.2,9.4,3.67,0,574,0,8.6,7.3
2023/06/15 21:36,32,73,1,50,43,32,5,0.82,30,60.0,54,27,0.5,0,6,6,5,1496,1279,368,0,66,45,29,0,37,1.2,9.4,3.6,0,576,0,8.6,7.3
2023/06/15 21:38,31,63,1,47,45,30,4,0.82,30,60.0,54,27,0.5,-1,7,5,6,1488,1271,370,0,65,45,29,0,20,1.2,9.4,3.74,0,589,0,8.5,7.3
2023/06/15 21:40,21,69,1,42,41,29,4,0.66,27,59.5,54,27,0.5,0.4,7,5,6,1494,1269,370,0,65,45,29,0,17,1.2,9.4,3.71,0,594,0,8.5,7.3
2023/06/15 21:42,18,54,0,41,41,19,2,0.67,27,59.5,56,25,0.52,0.1,4,3,4,1520,1269,374,0,67,45,29,0,13,1.3,9.4,3.65,0,594,0,8.5,7.3
2023/06/15 21:44,21,60,0,46,46,22,3,0.67,27,59.5,56,27,0.52,0.9,5,4,5,1518,1269,374,0,67,45,29,0,31,1.3,9.4,3.73,0,592,0,8.5,7.2
2023/06/15 21:46,21,60,1,45,43,31,4,0.67,24,59.0,55,27,0.52,0,7,5,5,1586,1296,378,0,72,46,29,0,30,1.3,9.4,3.62,0,588,0,8.4,7.2
2023/06/15 21:48,18,66,1,39,38,26,5,0.67,25,59.0,54,28,0.52,0.4,7,6,4,1651,1326,381,0,79,46,29,0,63,1.3,9.4,3.63,0,588,0,8.4,7.2
2023/06/15 21:50,18,66,1,45,39,33,7,0.67,25,59.0,52,28,0.52,-1,7,6,5,1675,1328,381,0,84,47,29,0,66,1.3,9.4,3.59,0,585,0,8.4,7.1
2023/06/15 21:52,19,69,4,45,35,36,9,0.6,25,59.0,53,28,0.52,-2,7,6,5,1732,1328,382,0,90,47,29,0,77,1.4,9.4,3.63,0,584,0,8.3,7.0
2023/06/15 21:54,11,63,4,42,30,35,10,0.5,23,59.0,50,28,0.52,0.2,8,6,5,1684,1326,378,0,90,47,29,0,89,1.4,9.4,3.71,0,584,0,8.3,7.0
2023/06/15 21:56,12,62,3,37,30,34,8,0.5,21,58.5,50,24,0.52,1.4,8,6,6,1642,1258,364,0,90,47,29,0,93,1.3,9.4,3.9,0,588,0,8.3,7.0
2023/06/15 21:58,12,58,3,41,31,40,8,0.46,20,58.5,50,24,0.52,0.4,8,6,6,1684,1435,438,0,95,49,33,0,96,1.3,9.4,3.97,0,673,0,8.2,7.0
2023/06/15 22:00,19,65,4,44,37,42,9,0.64,24,56.0,52,24,0.52,-1,8,6,6,1661,1421,438,0,91,48,33,0,95,1.3,9.4,4.05,0,675,0,8.2,7.0
2023/06/15 22:02,42,81,22,65,56,51,21,0.97,39,57.5,56,25,0.52,1.8,13,8,7,1658,1416,435,0,90,48,32,0,93,1.3,9.4,4.17,0,672,0,8.2,7.0
2023/06/15 22:04,65,88,33,74,68,54,23,1.17,43,61.5,56,30,0.52,0.7,15,10,7,1658,1416,434,0,90,48,32,0,94,1.3,9.4,4.23,0,671,0,8.2,7.0
2023/06/15 22:06,71,97,40,81,66,56,25,1.29,46,62.5,60,30,0.52,0,15,10,8,1637,1389,432,0,87,48,32,0,93,1.3,9.4,4.29,0,672,0,8.2,7.0
2023/06/15 22:08,82,95,40,84,66,58,25,1.63,53,62.5,60,30,0.52,0,15,10,8,1634,1376,431,0,85,48,32,0,93,1.3,9.4,4.35,0,671,0,8.2,7.0
2023/06/15 22:10,86,95,37,84,75,59,25,1.73,53,63.5,62,34,0.52,0.8,15,10,7,1625,1364,427,0,82,48,32,0,95,1.3,9.4,4.42,0,668,0,8.2,6.9
2023/06/15 22:12,90,95,36,90,90,57,26,2.13,56,64.5,64,36,0.62,0.4,15,9,7,1606,1336,421,0,81,48,32,0,97,1.3,9.4,4.44,0,668,0,8.1,6.9
2023/06/15 22:14,89,95,33,90,90,61,27,2.24,56,65.5,64,36,0.62,0,12,7,9,1602,1330,421,0,81,48,32,0,95,1.3,9.4,4.44,0,668,0,8.1,6.9
2023/06/15 22:16,89,95,56,91,91,60,28,2.37,56,66.5,66,36,0.62,-3,15,8,12,1572,1308,411,0,79,48,32,0,95,1.3,9.4,4.55,0,666,0,8.0,6.9
2023/06/15 22:18,89,95,56,91,91,61,28,2.63,56,66.5,66,36,0.62,0,16,8,12,1560,1300,405,0,78,48,32,0,95,1.3,9.4,4.62,0,666,0,8.0,6.8
2023/06/15 22:20,89,95,59,91,91,58,28,2.63,55,66.5,66,33,0.62,0,16,8,12,1524,1292,400,0,76,48,32,0,94,1.3,9.4,4.64,0,664,0,8.0,6.8
2023/06/15 22:22,83,95,65,91,91,62,28,2.63,57,68.0,66,25,0.62,0,17,9,9,1481,1264,387,0,76,49,31,0,95,1.3,9.4,4.77,0,662,0,7.9,6.8
2023/06/15 22:24,83,95,67,90,90,60,26,2.42,57,68.0,64,25,0.62,2.2,17,9,7,1471,1237,383,0,76,49,31,0,91,1.3,9.4,4.98,0,653,0,7.9,6.8
2023/06/15 22:26,85,95,52,90,90,61,25,2.41,57,68.0,64,29,0.62,0.9,17,9,7,1471,1237,383,0,76,49,31,0,91,1.3,9.4,4.98,0,654,0,7.9,6.8
2023/06/15 22:28,85,95,24,89,89,57,24,2.1,58,64.0,64,29,0.62,-1,11,7,7,1467,1234,381,0,76,49,31,0,89,1.3,9.4,5.03,0,652,0,7.9,6.9
2023/06/15 22:30,85,95,18,86,86,53,22,2.1,58,64.0,63,29,0.62,0.3,11,7,7,1467,1234,379,0,76,49,31,0,90,1.3,9.4,5.1,0,651,0,7.9,6.9
2023/06/15 22:32,85,95,11,86,86,53,18,2.06,58,63.5,62,29,0.62,0,11,7,6,1450,1229,377,0,78,50,31,0,88,1.3,9.4,5.18,0,649,0,7.9,6.9
2023/06/15 22:34,81,95,11,82,82,52,18,1.96,56,63.0,60,27,0.62,0.7,11,7,6,1448,1229,373,0,80,50,31,0,96,1.3,9.4,5.23,0,647,0,7.9,6.9
2023/06/15 22:36,75,92,5,80,66,53,16,1.71,56,63.0,60,27,0.62,0,10,6,6,1448,1225,373,0,80,50,31,0,95,1.3,9.4,5.24,0,644,0,7.9,6.9
2023/06/15 22:38,79,92,8,81,80,54,21,1.82,54,64.5,64,27,0.62,0,12,6,6,1448,1224,373,0,83,50,30,0,95,1.3,9.4,5.32,0,642,0,7.9,6.9
2023/06/15 22:40,79,89,7,83,83,53,21,1.83,50,66.0,64,27,0.62,0.6,10,6,6,1448,1224,371,0,83,50,30,0,95,1.3,9.4,5.37,0,639,0,7.8,6.9
2023/06/15 22:42,79,89,7,83,83,52,21,1.83,48,66.0,64,25,0.62,-1,8,6,6,1445,1218,368,0,85,50,30,0,94,1.3,9.4,5.49,0,629,0,7.9,6.9
2023/06/15 22:44,80,92,4,89,89,50,18,1.92,48,66.0,64,25,0.34,0.6,8,6,6,1442,1218,366,0,86,50,30,0,90,1.3,9.4,5.53,0,625,0,7.8,6.9
2023/06/15 22:46,81,92,13,90,90,51,24,2.0,49,67.0,64,25,0.34,0.1,12,8,7,1441,1214,364,0,87,51,30,0,88,1.3,9.4,5.58,0,617,0,7.8,6.9
2023/06/15 22:48,83,95,12,90,90,52,24,2.05,52,67.0,64,25,0.32,1.0,12,8,7,1439,1224,362,0,87,51,30,0,89,1.3,9.4,5.67,0,606,0,7.8,6.9
2023/06/15 22:50,84,95,31,88,88,56,26,2.05,54,67.0,63,25,0.32,0,13,9,8,1439,1224,361,0,86,51,30,0,89,1.5,9.4,5.69,0,603,0,7.8,6.9
2023/06/15 22:52,87,95,45,85,82,59,30,2.05,54,67.0,63,25,0.32,0,16,10,9,1434,1235,355,0,87,51,29,0,90,1.5,9.4,5.75,0,590,0,7.9,6.9
2023/06/15 22:54,87,95,47,87,87,57,25,2.01,54,65.5,63,25,0.32,1.6,15,10,9,1430,1235,355,0,90,51,29,0,88,1.5,9.4,5.74,0,586,0,7.8,6.9
2023/06/15 22:56,80,95,53,84,71,58,26,1.7,54,65.0,63,26,0.32,1.3,15,10,8,1426,1231,355,0,90,51,29,0,90,1.5,9.4,5.73,0,581,0,7.8,6.9
2023/06/15 22:58,83,95,61,84,78,59,27,1.7,51,66.0,62,27,0.32,0.7,20,12,9,1426,1230,353,0,92,51,29,0,95,1.5,9.4,5.7,0,575,0,7.7,6.9
2023/06/15 23:00,83,95,61,84,70,59,27,1.7,49,66.0,62,29,0.32,1.4,20,12,9,1426,1214,353,0,92,51,29,0,96,1.5,9.4,5.67,0,570,0,7.7,6.9
2023/06/15 23:02,75,95,59,82,75,58,27,1.44,48,66.0,60,29,0.27,-2,20,12,9,1426,1189,353,0,98,51,29,0,96,1.5,9.4,5.62,0,567,0,7.7,6.9
2023/06/15 23:04,75,95,51,87,70,69,52,1.44,48,64.5,60,29,0.26,0,15,11,9,1424,1110,368,0,183,59,40,0,93,1.5,9.4,5.57,0,582,0,7.3,6.9
2023/06/15 23:06,73,97,51,86,76,69,52,1.36,48,65.0,59,29,0.26,0.8,15,11,9,1388,1055,368,0,183,59,40,0,91,1.5,9.4,5.43,0,572,0,7.3,6.9
2023/06/15 23:08,74,95,48,86,75,69,50,1.36,48,65.0,60,33,0.26,4.3,15,11,8,1383,1051,366,0,182,59,40,0,90,1.5,9.4,5.32,0,565,0,7.3,7.0
2023/06/15 23:10,61,97,49,85,68,68,50,1.13,45,65.0,59,33,0.26,0,14,10,8,1383,1051,368,0,179,58,39,0,90,1.5,9.4,5.09,0,551,0,7.3,7.0
2023/06/15 23:12,71,95,47,86,67,69,53,1.26,45,64.0,59,33,0.26,0.4,17,10,6,1378,1051,368,0,174,58,39,0,89,1.5,9.4,4.97,0,540,0,7.3,7.0
2023/06/15 23:14,71,95,52,85,71,70,53,1.26,44,64.0,60,33,0.26,0,24,11,7,1378,1051,368,0,174,58,39,0,92,1.5,9.4,4.97,0,540,0,7.3,7.0
2023/06/15 23:16,77,95,47,86,70,73,55,1.26,44,64.0,60,46,0.27,4.5,27,12,7,1370,1042,368,0,174,58,39,0,93,1.5,9.4,4.97,0,540,0,7.3,7.0
2023/06/15 23:18,77,95,59,86,66,72,56,1.26,43,64.0,58,46,0.27,-3,32,12,9,1334,978,366,0,173,58,38,0,96,1.5,9.4,4.64,0,524,0,7.3,7.1
2023/06/15 23:20,72,95,62,86,71,72,54,1.17,43,64.0,60,46,0.27,0,32,12,10,1334,978,366,0,173,58,38,0,96,1.5,9.4,4.64,0,524,0,7.3,7.1
2023/06/15 23:22,72,95,62,86,72,71,54,1.18,43,65.0,60,46,0.27,0.1,24,12,9,1314,950,364,0,172,58,37,0,97,1.5,9.4,4.5,0,519,0,7.3,7.1
2023/06/15 23:24,69,97,62,85,68,67,57,1.18,43,65.0,58,40,0.28,1.3,24,12,8,1361,1051,372,0,173,58,37,0,95,1.5,9.4,4.57,0,513,0,7.4,7.1
2023/06/15 23:26,69,97,59,85,69,66,57,1.18,43,65.0,57,40,0.28,0,24,12,9,1361,1051,372,0,173,58,37,0,95,1.5,9.4,4.57,0,513,0,7.4,7.1
2023/06/15 23:28,66,97,44,84,64,67,51,0.91,41,64.0,57,56,0.28,1.5,14,9,9,1374,1121,379,0,173,57,36,0,97,1.5,9.4,4.43,0,508,0,7.4,7.1
2023/06/15 23:30,69,97,52,83,66,66,51,0.96,41,64.0,56,56,0.28,-1,18,10,9,1386,1148,379,0,174,57,36,0,98,1.5,9.4,4.37,0,507,0,7.4,7.1
2023/06/15 23:32,80,95,57,85,70,65,50,1.19,43,66.5,56,57,0.31,1.0,18,10,9,1361,1145,376,0,174,57,35,0,96,1.5,9.4,4.23,0,503,0,7.4,7.1
2023/06/15 23:34,86,95,61,86,72,69,51,1.19,43,66.5,58,70,0.34,1.2,18,11,8,1360,1139,376,0,176,57,35,0,96,1.5,9.4,4.22,0,502,0,7.4,7.1
2023/06/15 23:36,86,95,61,86,71,72,51,1.19,43,66.5,58,70,0.34,-2,19,11,8,1360,1139,376,0,176,57,35,0,95,1.5,9.4,4.22,0,502,0,7.4,7.1
2023/06/15 23:38,81,95,50,85,66,70,47,1.11,44,66.5,58,70,0.34,0.2,19,11,8,1287,1080,363,0,180,56,34,0,91,1.5,9.4,3.96,0,496,0,7.5,7.1
2023/06/15 23:40,81,95,52,84,70,68,49,1.11,44,66.5,58,70,0.34,0,19,12,6,1287,1080,363,0,180,56,34,0,90,1.5,9.4,3.96,0,496,0,7.5,7.1
2023/06/15 23:42,68,97,52,80,65,58,50,1.11,45,65.5,58,44,0.34,0,19,12,6,1283,1075,360,0,180,56,34,0,91,1.5,9.4,3.88,0,494,0,7.5,7.1
2023/06/15 23:44,74,95,51,84,66,60,50,1.22,45,65.5,60,44,0.34,0,19,12,8,1237,1052,351,0,183,56,34,0,95,1.5,9.4,3.71,0,492,0,7.5,7.1
2023/06/15 23:46,74,95,61,84,71,62,48,1.22,45,65.5,60,43,0.34,0,26,10,10,1237,1052,351,0,183,56,34,0,95,1.5,9.4,3.71,0,492,0,7.5,7.1
2023/06/15 23:48,69,97,77,81,74,52,50,1.22,44,65.0,62,31,0.34,0,26,15,12,1242,1075,355,0,186,55,33,0,96,1.5,9.4,3.76,0,487,0,7.5,7.1
2023/06/15 23:50,66,97,77,80,71,53,49,1.22,44,65.0,60,30,0.34,0.1,34,17,10,1242,1075,355,0,186,55,33,0,96,1.5,9.4,3.76,0,487,0,7.5,7.1
2023/06/15 23:52,48,95,85,78,71,51,46,1.17,44,65.0,60,24,0.34,0,34,17,10,1204,1071,345,0,187,55,33,0,96,1.5,9.4,3.66,0,486,0,7.5,7.2
2023/06/15 23:54,48,95,79,76,71,49,44,1.17,45,65.0,59,22,0.34,0,34,18,10,1179,1069,343,0,187,54,33,0,97,1.5,9.4,3.57,0,484,0,7.6,7.2
2023/06/15 23:56,53,97,77,77,73,45,47,1.35,47,64.0,61,22,0.34,0.3,34,18,10,1083,978,332,0,184,53,33,0,97,1.5,9.3,3.38,0,481,0,7.6,7.2
2023/06/15 23:58,50,97,80,79,69,44,46,1.36,48,66.5,61,21,0.34,0.3,34,18,10,1081,960,328,0,183,52,33,0,98,1.5,9.3,3.26,0,480,0,7.7,7.2
2023/06/16 00:00,54,97,80,80,73,46,47,1.36,51,66.5,60,21,0.34,-1,26,15,10,1073,935,328,0,183,52,33,0,98,1.5,9.3,3.24,0,479,0,7.7,7.2
2023/06/16 00:02,51,97,80,85,69,68,55,1.36,52,66.5,60,21,0.34,0,19,14,10,1019,711,318,0,263,54,42,0,98,1.5,9.3,3.17,0,519,0,7.0,7.0
2023/06/16 00:04,51,97,82,85,75,67,56,1.36,52,66.5,60,21,0.34,0.7,19,14,11,968,659,309,0,267,54,42,0,98,1.5,9.3,3.06,0,516,0,7.0,7.0
2023/06/16 00:06,64,97,81,86,74,69,60,1.34,52,64.5,60,31,0.27,11.0,19,14,9,956,640,304,0,267,54,42,0,98,1.5,9.3,3.03,0,516,0,7.0,7.0
2023/06/16 00:08,64,97,81,86,73,70,57,1.34,50,64.5,60,31,0.27,-2,21,13,9,956,640,304,0,267,54,42,0,98,1.5,9.3,3.03,0,516,0,7.0,7.0
2023/06/16 00:10,61,97,72,84,71,67,57,1.34,50,62.5,60,31,0.33,1.3,21,12,9,900,586,290,0,265,52,42,0,98,1.5,9.3,2.88,0,515,0,7.0,7.0
2023/06/16 00:12,61,97,66,84,66,68,54,1.34,50,62.5,58,31,0.33,-1,22,10,10,893,586,288,0,265,52,41,0,97,1.5,9.3,2.87,0,515,0,7.0,7.0
2023/06/16 00:14,51,97,66,82,68,66,54,1.24,46,60.5,58,29,0.33,0.4,22,10,10,866,559,281,0,264,52,41,0,95,1.5,9.3,2.83,0,515,0,7.0,7.1
2023/06/16 00:16,51,97,66,80,67,66,54,1.24,42,60.0,58,29,0.33,0,22,10,10,866,559,281,0,264,52,41,0,94,1.5,9.3,2.83,0,515,0,7.0,7.1
2023/06/16 00:18,72,95,63,84,69,63,49,1.24,42,62.0,58,50,0.44,3.3,22,9,10,845,554,272,0,258,51,41,0,94,1.4,9.3,2.8,0,515,0,7.1,7.1
2023/06/16 00:20,76,95,68,85,71,67,50,1.33,44,62.0,60,50,0.44,0,20,10,9,833,529,271,0,258,50,41,0,92,1.4,9.3,2.78,0,515,0,7.1,7.1
2023/06/16 00:22,84,95,68,89,73,71,41,1.43,44,65.0,60,62,0.44,1.6,20,10,9,822,529,265,0,258,50,41,0,93,1.4,9.3,2.76,0,515,0,7.1,7.2
2023/06/16 00:24,84,95,62,89,70,73,41,1.43,47,65.0,60,62,0.44,-1,20,10,9,822,529,265,0,258,50,41,0,91,1.4,9.3,2.76,0,515,0,7.1,7.2
2023/06/16 00:26,88,95,56,89,76,71,40,1.69,47,65.0,62,62,0.44,0,14,9,8,791,500,257,0,262,49,41,0,92,1.4,9.3,2.69,0,512,0,7.2,7.2
2023/06/16 00:28,88,95,48,89,76,68,38,1.69,47,65.0,62,62,0.46,1.2,14,9,8,791,500,257,0,262,49,41,0,89,1.4,9.3,2.69,0,512,0,7.2,7.2
2023/06/16 00:30,88,95,41,89,73,70,37,1.69,47,65.0,60,62,0.46,-1,14,9,8,764,466,245,0,267,47,41,0,89,1.4,9.3,2.65,0,512,0,7.2,7.2
2023/06/16 00:32,88,95,41,88,73,68,36,1.69,47,65.0,60,62,0.46,0,12,8,9,751,464,241,0,268,47,40,0,92,1.4,9.3,2.62,0,512,0,7.2,7.2
2023/06/16 00:34,84,95,31,86,63,66,31,1.41,44,64.0,60,62,0.46,0,12,8,9,727,454,237,0,269,47,40,0,91,1.4,9.3,2.54,0,503,0,7.2,7.2
2023/06/16 00:36,67,94,37,83,68,63,29,1.23,44,64.0,59,37,0.46,0,13,9,9,703,423,232,0,269,46,40,0,90,1.4,9.3,2.42,0,494,0,7.2,7.2
2023/06/16 00:38,64,94,40,82,60,63,29,1.24,47,62.0,59,35,0.46,0.6,13,10,9,688,403,230,0,269,46,40,0,86,1.4,9.3,2.36,0,488,0,7.2,7.2
2023/06/16 00:40,62,97,45,82,68,62,27,1.24,51,63.5,58,35,0.46,-1,13,10,10,675,397,227,0,273,46,40,0,85,1.3,9.3,2.32,0,477,0,7.2,7.2
2023/06/16 00:42,62,97,48,82,61,63,27,1.24,51,63.5,58,35,0.46,0.1,13,10,10,675,397,227,0,273,46,40,0,91,1.3,9.3,2.32,0,477,0,7.2,7.2
2023/06/16 00:44,62,97,48,82,63,64,27,1.25,51,63.5,58,35,0.46,0,12,10,10,652,388,225,0,278,46,40,0,92,1.3,9.3,2.29,0,475,0,7.3,7.2
2023/06/16 00:46,56,92,48,81,72,63,25,1.25,51,63.5,61,28,0.46,1.1,12,10,10,621,340,223,0,284,45,41,0,93,1.3,9.3,2.21,0,463,0,7.3,7.1
2023/06/16 00:48,56,92,59,81,71,64,28,1.25,49,63.0,61,28,0.46,0,16,11,10,596,331,217,0,289,45,41,0,83,1.3,9.3,2.19,0,454,0,7.3,7.1
2023/06/16 00:50,56,88,64,81,67,66,27,1.24,47,63.0,58,28,0.46,0,16,11,10,575,307,216,0,290,45,41,0,79,1.3,9.3,2.16,0,448,0,7.4,7.1
2023/06/16 00:52,49,90,64,79,69,61,27,1.11,46,63.5,58,28,0.46,1.8,16,11,7,566,301,216,0,290,45,41,0,80,1.3,9.3,2.13,0,448,0,7.4,7.0
2023/06/16 00:54,49,90,64,80,59,64,27,1.11,44,63.5,58,28,0.46,-1,16,11,7,566,301,216,0,290,45,41,0,81,1.3,9.3,2.13,0,448,0,7.4,7.0
2023/06/16 00:56,38,81,36,77,63,61,28,0.97,42,63.5,56,28,0.46,0,16,11,7,544,286,215,0,290,45,41,0,74,1.3,9.3,2.12,0,448,0,7.4,7.0
2023/06/16 00:58,38,85,51,78,61,63,27,0.97,42,63.5,56,28,0.46,1.3,16,11,9,544,286,215,0,290,45,41,0,80,1.3,9.3,2.12,0,448,0,7.5,7.0
2023/06/16 01:00,33,80,37,77,52,65,22,0.85,37,61.0,56,28,0.32,-2,15,10,9,459,233,174,0,287,42,41,0,80,1.3,9.2,2.11,0,451,0,6.7,7.1
2023/06/16 01:02,33,78,37,77,52,64,23,0.85,36,61.0,56,28,0.32,0.0,15,10,9,459,233,174,0,287,42,41,0,84,1.3,9.2,2.11,0,451,0,6.7,7.1
2023/06/16 01:04,26,75,37,73,35,65,22,0.8,37,59.5,56,28,0.32,1.3,15,10,9,464,212,174,0,287,43,41,0,82,1.3,9.2,2.08,0,451,0,6.8,7.0
2023/06/16 01:06,26,75,28,74,53,62,23,0.84,37,59.5,56,24,0.32,-1,11,9,8,455,199,175,0,287,43,41,0,81,1.3,9.2,2.03,0,446,0,6.8,7.0
2023/06/16 01:08,35,79,22,77,58,63,17,0.96,37,63.5,56,24,0.32,0.3,11,10,8,464,186,178,0,287,43,40,0,89,1.3,9.2,2.06,0,447,0,6.8,7.0
2023/06/16 01:10,35,79,25,78,64,66,20,0.96,37,63.5,59,24,0.32,0,11,10,8,464,170,184,0,284,43,39,0,89,1.3,9.2,2.06,0,447,0,6.8,7.0
2023/06/16 01:12,31,73,26,78,65,61,19,1.09,37,63.5,59,18,0.32,0.3,11,10,8,466,166,185,0,282,43,39,0,84,1.3,9.2,2.1,0,451,0,6.8,7.0
2023/06/16 01:14,31,73,24,77,66,58,19,1.09,37,63.5,60,18,0.32,0,14,10,8,466,166,185,0,282,43,39,0,76,1.3,9.2,2.1,0,451,0,6.8,7.0
2023/06/16 01:16,79,89,29,86,70,73,21,1.26,40,64.5,60,58,0.32,10.4,14,10,8,491,224,187,0,279,42,39,0,74,1.3,9.2,2.21,0,463,0,6.8,7.1
2023/06/16 01:18,81,92,47,87,76,76,23,1.31,40,66.5,61,58,0.32,-1,16,12,9,491,206,187,0,279,42,39,0,73,1.3,9.2,2.21,0,461,0,6.8,7.1
2023/06/16 01:20,81,92,47,87,76,74,23,1.31,40,66.5,61,58,0.32,0.8,16,12,9,491,206,187,0,279,42,39,0,78,1.3,9.2,2.21,0,461,0,6.8,7.1
2023/06/16 01:22,81,92,47,87,73,74,24,1.31,40,66.5,58,58,0.32,-1,16,12,9,485,187,185,0,279,42,39,0,84,1.3,9.2,2.2,0,458,0,6.8,7.1
2023/06/16 01:24,81,95,69,87,73,72,22,1.31,40,66.5,58,57,0.33,0.3,20,12,9,484,169,185,0,283,42,38,0,83,1.4,9.2,2.18,0,455,0,6.9,7.1
2023/06/16 01:26,74,97,72,85,72,71,22,1.12,42,66.5,58,60,0.41,0.7,20,13,9,484,166,185,0,282,42,38,0,75,1.4,9.2,2.18,0,452,0,6.9,7.1
2023/06/16 01:28,71,97,72,84,70,72,22,1.06,42,65.5,58,60,0.41,-1,20,13,9,484,166,185,0,282,42,38,0,72,1.4,9.2,2.18,0,452,0,6.9,7.1
2023/06/16 01:30,71,97,72,84,69,68,22,1.07,42,64.0,56,60,0.41,0,20,13,9,482,165,186,0,278,42,38,0,70,1.4,9.2,2.18,0,451,0,6.9,7.1
2023/06/16 01:32,71,97,70,84,69,68,21,1.07,42,64.0,56,60,0.41,0.0,22,12,8,482,148,185,0,272,42,38,0,69,1.4,9.2,2.18,0,443,0,6.9,7.1
2023/06/16 01:34,59,92,69,80,63,59,20,1.07,40,63.5,56,40,0.41,0.3,22,12,8,482,148,185,0,269,42,37,0,82,1.4,9.2,2.24,0,451,0,6.9,7.1
2023/06/16 01:36,66,97,68,80,67,67,19,0.94,37,63.0,57,66,0.61,2.0,22,12,8,482,132,185,0,266,41,37,0,83,1.4,9.2,2.24,0,442,0,6.9,7.1
2023/06/16 01:38,68,97,68,81,65,71,19,0.97,34,62.0,58,66,0.61,-1,20,12,8,481,132,185,0,266,41,37,0,83,1.4,9.2,2.26,0,442,0,6.9,7.1
2023/06/16 01:40,68,97,68,81,64,71,18,0.97,35,62.0,56,66,0.61,0.0,22,14,8,481,132,184,0,266,41,36,0,78,1.4,9.2,2.3,0,442,0,6.9,7.1
2023/06/16 01:42,68,97,68,79,62,70,17,0.97,35,63.5,56,66,0.61,0,22,16,8,480,132,183,0,265,41,36,0,75,1.4,9.2,2.34,0,457,0,6.9,7.1
2023/06/16 01:44,55,95,68,76,52,57,16,0.87,35,63.5,51,56,0.61,1.0,22,18,8,475,132,182,0,265,41,36,0,77,1.3,9.2,2.36,0,458,0,6.9,7.1
